[[{"header":{"parameterUnit":"m.s-1","parameterCategory":2,"la1":30.2991,"la2":30.254,"lo1":-89.0895,"lo2":-89.0444,"dy":0.0017,"dx":0.0017,"nx":28,"ny":28,"refTime":"2023-10-25T09:00:00:Z","depth":"0","parameterNumber":2,"parameterNumberName":"U-component_of_CURRENTS"},"data":[0,0,0,0,0,0,0,0,0,0,0,0,0,0,0,0,0,0,0,0,0,0,0,0,0,0,0,0,0,0,0,0,0,0,0,0,0,0,0,0,0,0,0,0,0,0,0,0,0,0,0,0,0,0,0,0,0,0,0.209,0.209,0,0.2104,0.2104,0.2104,0.2127,0.2128,0.2128,0.2129,0.2137,0.2137,0.2137,0,0,0,0,0,0,0,0,0,0,0,0,0,0.2085,0.2085,0.209,0.209,0.2091,0.2104,0.2104,0.2104,0.2127,0.2128,0.2129,0.2129,0.2137,0.2137,0.2137,0,0,0,0,0,0,0,0,0,0,0,0,0,0.2091,0.2085,0.209,0.2104,0.2106,0.2104,0.2104,0.2104,0.2127,0.2128,0.2129,0.2129,0.2137,0.2137,0.2137,0.212,0,0,0.2135,0.2135,0,0,0,0,0,0,0,0,0.2091,0.2091,0.2102,0.2103,0.2105,0.2115,0.2105,0.2109,0.2127,0.2119,0.2129,0.213,0.2129,0.2129,0.213,0.212,0.212,0.2135,0.2135,0.2135,0.2135,0,0,0,0,0,0,0,0.209,0.2091,0.2095,0.2102,0.2104,0.211,0.2112,0.2106,0.2119,0.2119,0.2121,0.2123,0.213,0.213,0.213,0.212,0.2135,0.2135,0.2135,0.2135,0.2153,0.2153,0,0,0,0,0,0,0.2089,0.209,0.2095,0.2096,0.21,0.2109,0.2111,0.2111,0.2119,0.2121,0.2123,0.2124,0.213,0.213,0.213,0.2153,0.2135,0.2135,0.2134,0.2152,0.2153,0.2154,0,0,0,0,0,0,0.2088,0.2089,0.2094,0.2094,0.2095,0.2109,0.2108,0.2111,0.2114,0.2122,0.2124,0.2124,0.2131,0.2131,0.2139,0.2151,0.2135,0.2134,0.2151,0.2152,0.2153,0.217,0,0,0,0,0,0,0.2088,0.2088,0.2087,0.2094,0.2095,0.2099,0.2107,0.211,0.2114,0.2116,0.2123,0.2125,0.2131,0.2139,0.2138,0.2151,0.2134,0.215,0.2152,0.2153,0.2169,0.2171,0.2174,0,0,0,0,0,0.2088,0.2084,0.2087,0.2088,0.2093,0.2099,0.21,0.2112,0.2113,0.2117,0.2127,0.2125,0.2147,0.2139,0.2138,0.2151,0.215,0.2151,0.2153,0.2167,0.2171,0.2174,0,0,0,0,0,0,0.2078,0.2086,0.209,0.2088,0.2096,0.2103,0.2106,0.2109,0.2118,0.2121,0.2126,0.2129,0.2146,0.2142,0.2133,0.2161,0.2151,0.2152,0.2162,0.2165,0.2168,0.2176,0.2134,0,0,0,0,0,0.2075,0.2077,0.2085,0.2083,0.2087,0.2094,0.2096,0.2105,0.2113,0.2117,0.2122,0.2133,0.2149,0.2152,0.2164,0.2166,0.218,0.2177,0.2179,0.2181,0.2189,0.2217,0.2223,0.2159,0.2159,0.2159,0,0,0.207,0.2075,0.2075,0.2082,0.2087,0.2098,0.2097,0.2103,0.2117,0.2115,0.2131,0.2141,0.2154,0.2172,0.2178,0.2169,0.2209,0.2183,0.2185,0.2191,0.2219,0.2225,0.2231,0.216,0.216,0.2159,0,0,0.2066,0.2066,0.2069,0.2077,0.2089,0.2097,0.2098,0.2107,0.2117,0.2128,0.2143,0.2159,0.2167,0.2189,0.2198,0.2218,0.2226,0.2221,0.2235,0.2262,0.2268,0.2273,0.2305,0.2313,0.2217,0.2217,0.2217,0,0.2059,0.2066,0.207,0.208,0.209,0.2097,0.2108,0.2119,0.2131,0.2144,0.2137,0.2175,0.2179,0.2217,0.2229,0.2225,0.2243,0.222,0.2266,0.2271,0.2276,0.2308,0.2316,0.2218,0.2218,0.2218,0.2218,0,0.2062,0.207,0.2072,0.2091,0.2101,0.2109,0.2128,0.2142,0.2149,0.2163,0.2195,0.2205,0.2231,0.2234,0.2236,0.2277,0.2281,0.2269,0.2257,0.2283,0.2315,0.2324,0.222,0.2219,0.2219,0.2219,0,0,0.2037,0.2068,0.2069,0.2081,0.2108,0.2114,0.2145,0.2173,0.2196,0.2208,0.2238,0.2263,0.227,0.2282,0.2289,0.2306,0.2354,0.2301,0.2302,0.2332,0.2423,0.2434,0.2444,0.235,0.2351,0.2352,0.2434,0,0.2037,0.2058,0.2077,0.2098,0.2109,0.2136,0.2164,0.2193,0.2217,0.2248,0.2268,0.2298,0.2289,0.2302,0.2322,0.2352,0.2376,0.2333,0.2394,0.2396,0.2401,0.2454,0.2374,0.2441,0.2443,0.2444,0.2445,0,0.2029,0.2047,0.2068,0.2106,0.2114,0.2132,0.218,0.2208,0.2262,0.2282,0.2319,0.2335,0.2379,0.2355,0.2424,0.2399,0.2416,0.2428,0.2431,0.2441,0.2422,0.2413,0.2456,0.2411,0.2458,0.2457,0.2456,0,0.2,0.2037,0.2053,0.2064,0.2111,0.2131,0.2161,0.2216,0.2244,0.2308,0.234,0.2386,0.2427,0.2448,0.2489,0.2457,0.2563,0.252,0.2547,0.2548,0.2493,0.2487,0.2497,0.2565,0.2564,0.2564,0.2564,0,0.1985,0.1993,0.204,0.2046,0.207,0.2114,0.2151,0.2192,0.2255,0.2299,0.2355,0.2405,0.2453,0.2517,0.252,0.2583,0.2595,0.257,0.2576,0.2497,0.2491,0.2459,0.2429,0.2567,0.2567,0.2566,0.2565,0,0.1937,0.197,0.1987,0.2039,0.2053,0.207,0.2132,0.2162,0.2239,0.2304,0.2327,0.2438,0.2539,0.2593,0.2656,0.2645,0.2613,0.2693,0.2607,0.2601,0.2555,0.2528,0.2445,0.2364,0.2722,0.2723,0.2724,0,0.1908,0.1916,0.1966,0.1979,0.1999,0.2035,0.2061,0.2135,0.2179,0.2322,0.2354,0.2488,0.2575,0.2701,0.2725,0.2767,0.2664,0.2697,0.2613,0.2565,0.2539,0.2412,0.2338,0.2548,0.2548,0.2547,0.2547,0,0.1857,0.188,0.1903,0.1931,0.1955,0.1979,0.2032,0.206,0.2168,0.2241,0.2359,0.2441,0.2616,0.2655,0.2744,0.2738,0.2569,0.2685,0.2649,0.2427,0.2273,0.2193,0.249,0.2541,0.2541,0.2542,0.2542,0.2542,0.1816,0.1821,0.186,0.1879,0.1904,0.192,0.1918,0.1996,0.2055,0.2163,0.2299,0.2407,0.2542,0.2668,0.2655,0.2611,0.256,0.2523,0.2504,0.2388,0.2271,0.257,0.2618,0.2619,0.262,0.2621,0.2621,0,0.1752,0.1778,0.1803,0.182,0.1817,0.1852,0.189,0.1887,0.1933,0.2084,0.2188,0.2335,0.2407,0.2484,0.2532,0.245,0.2284,0.2376,0.2168,0.2109,0.2403,0.236,0.2336,0.2336,0.2336,0.2336,0.2336,0.2336,0.1724,0.1726,0.1745,0.1727,0.1736,0.1697,0.1698,0.1717,0.1798,0.1911,0.2012,0.214,0.2326,0.2438,0.2404,0.2328,0.2125,0.2036,0.2009,0.223,0.224,0.2251,0.2203,0.2147,0.2146,0.1609,0.1606,0.1603]},{"header":{"parameterUnit":"m.s-1","parameterCategory":2,"la1":30.2991,"la2":30.254,"lo1":-89.0895,"lo2":-89.0444,"dy":0.0017,"dx":0.0017,"nx":28,"ny":28,"refTime":"2023-10-25T09:00:00:Z","depth":"0","parameterNumber":3,"parameterNumberName":"V-component_of_CURRENTS"},"data":[0,0,0,0,0,0,0,0,0,0,0,0,0,0,0,0,0,0,0,0,0,0,0,0,0,0,0,0,0,0,0,0,0,0,0,0,0,0,0,0,0,0,0,0,0,0,0,0,0,0,0,0,0,0,0,0,0,0,-0.0031,-0.0032,0,-0.0099,-0.01,-0.0101,-0.015,-0.0151,-0.0151,-0.0151,-0.0198,-0.0199,-0.02,0,0,0,0,0,0,0,0,0,0,0,0,0,0.0026,0.0025,-0.0031,-0.0032,-0.0032,-0.0099,-0.01,-0.0101,-0.015,-0.0151,-0.0151,-0.0151,-0.0197,-0.0199,-0.02,0,0,0,0,0,0,0,0,0,0,0,0,0,-0.0017,0.0025,-0.0031,-0.0064,-0.0067,-0.0099,-0.01,-0.0101,-0.015,-0.0151,-0.0151,-0.0151,-0.0197,-0.0199,-0.02,-0.0201,0,0,-0.0204,-0.0205,0,0,0,0,0,0,0,0,-0.0015,-0.002,-0.0058,-0.0062,-0.0066,-0.0115,-0.0097,-0.0133,-0.015,-0.012,-0.0151,-0.0152,-0.0167,-0.0171,-0.0185,-0.0203,-0.0205,-0.0205,-0.0205,-0.0206,-0.0206,0,0,0,0,0,0,0,-0.0012,-0.0017,-0.0059,-0.0059,-0.0063,-0.0086,-0.0092,-0.0104,-0.0141,-0.0123,-0.0126,-0.0131,-0.0169,-0.0184,-0.0187,-0.0205,-0.0205,-0.0206,-0.0207,-0.0207,-0.0235,-0.0235,0,0,0,0,0,0,0.0002,-0.0014,-0.0057,-0.0061,-0.0039,-0.0086,-0.0094,-0.01,-0.0142,-0.0148,-0.0131,-0.0133,-0.0181,-0.0185,-0.0188,-0.02,-0.0206,-0.0207,-0.0208,-0.0235,-0.0235,-0.0235,0,0,0,0,0,0,0.0003,-0.0002,-0.0054,-0.0038,-0.0046,-0.0086,-0.0094,-0.0101,-0.0116,-0.0148,-0.0154,-0.0138,-0.0181,-0.0186,-0.02,-0.0202,-0.0208,-0.0209,-0.0235,-0.0235,-0.0235,-0.0218,0,0,0,0,0,0,0.0005,-0.0001,-0.0002,-0.0037,-0.0046,-0.0071,-0.0093,-0.0102,-0.0118,-0.0122,-0.0155,-0.016,-0.0182,-0.0197,-0.0201,-0.0204,-0.0211,-0.0236,-0.0235,-0.0235,-0.0219,-0.0217,-0.0216,0,0,0,0,0,0.0007,0.0006,-0.0001,-0.0006,-0.0046,-0.0071,-0.0078,-0.0109,-0.0117,-0.0124,-0.0146,-0.0159,-0.0199,-0.0198,-0.0203,-0.0206,-0.0236,-0.0235,-0.0235,-0.0219,-0.0217,-0.0216,0,0,0,0,0,0,0.0027,-0.0,-0.0009,-0.0019,-0.004,-0.0079,-0.0087,-0.0104,-0.0127,-0.0128,-0.0157,-0.0164,-0.0178,-0.019,-0.0189,-0.0213,-0.0219,-0.022,-0.0206,-0.0204,-0.0203,-0.0206,-0.0212,0,0,0,0,0,0.0034,0.0027,-0.0002,-0.0009,-0.0017,-0.0048,-0.0061,-0.008,-0.0105,-0.0116,-0.0139,-0.016,-0.018,-0.019,-0.0208,-0.0217,-0.0232,-0.0222,-0.022,-0.0219,-0.0225,-0.0252,-0.0254,-0.0234,-0.0234,-0.0234,0,0,0.004,0.0024,0.002,-0.0005,-0.0023,-0.0033,-0.0058,-0.0074,-0.0085,-0.0115,-0.0133,-0.0155,-0.0181,-0.0198,-0.0205,-0.0208,-0.0229,-0.0219,-0.0218,-0.0224,-0.0252,-0.0254,-0.0256,-0.0234,-0.0234,-0.0234,0,0,0.0049,0.0036,0.0034,0.002,-0.0001,-0.002,-0.0021,-0.0054,-0.0071,-0.0087,-0.0114,-0.0139,-0.0162,-0.019,-0.0204,-0.0203,-0.022,-0.0203,-0.0201,-0.0227,-0.023,-0.0232,-0.0237,-0.024,-0.0203,-0.0203,-0.0203,0,0.0058,0.0051,0.0029,0.0025,0.0018,-0.001,-0.0012,-0.0033,-0.0067,-0.0079,-0.0088,-0.0137,-0.0162,-0.0189,-0.0197,-0.0202,-0.0211,-0.0205,-0.0226,-0.0229,-0.0231,-0.0236,-0.024,-0.0202,-0.0202,-0.0202,-0.0202,0,0.0064,0.0061,0.006,0.0048,0.0036,0.0031,0.0005,-0.001,-0.0028,-0.0051,-0.008,-0.0119,-0.0148,-0.0162,-0.0183,-0.0212,-0.021,-0.0221,-0.0231,-0.0232,-0.0237,-0.0241,-0.0201,-0.0201,-0.0201,-0.0202,0,0,0.0086,0.0068,0.007,0.007,0.005,0.0042,0.0028,0.0006,0.0003,-0.0038,-0.0049,-0.0105,-0.0126,-0.0144,-0.0173,-0.0207,-0.0234,-0.0223,-0.0225,-0.0229,-0.0278,-0.024,-0.0241,-0.025,-0.0251,-0.0251,-0.0268,0,0.0101,0.0103,0.0087,0.0092,0.0093,0.0067,0.006,0.0037,0.0015,-0.0001,-0.0053,-0.007,-0.0116,-0.0125,-0.017,-0.0215,-0.0246,-0.0228,-0.0276,-0.0277,-0.0245,-0.0245,-0.0212,-0.0222,-0.0272,-0.0273,-0.0273,0,0.0118,0.0117,0.0123,0.0119,0.0118,0.0115,0.0105,0.0098,0.0065,0.005,0.0012,-0.0021,-0.0076,-0.0109,-0.0198,-0.0183,-0.0232,-0.0272,-0.0274,-0.0251,-0.0247,-0.0232,-0.0227,-0.0347,-0.0279,-0.0279,-0.0278,0,0.0151,0.0146,0.0153,0.0151,0.0139,0.0137,0.0134,0.0112,0.0123,0.0088,0.0098,0.0018,0.0007,-0.0086,-0.0166,-0.0185,-0.0251,-0.0284,-0.0297,-0.0294,-0.0282,-0.0276,-0.0401,-0.0351,-0.0351,-0.0351,-0.0351,0,0.0177,0.0186,0.017,0.0176,0.0193,0.0174,0.0192,0.0179,0.0181,0.0218,0.0135,0.0156,0.0011,-0.0038,-0.014,-0.0212,-0.0228,-0.0297,-0.03,-0.0272,-0.0265,-0.0381,-0.0458,-0.0352,-0.0352,-0.0351,-0.0351,0,0.0215,0.0203,0.0213,0.0205,0.021,0.0224,0.0246,0.0267,0.0263,0.0313,0.0312,0.0263,0.0208,0.0076,-0.0051,-0.0147,-0.0302,-0.0264,-0.0207,-0.0204,-0.0341,-0.0416,-0.0541,-0.0603,-0.0296,-0.0295,-0.0295,0,0.0236,0.0243,0.0245,0.0259,0.0258,0.0278,0.0303,0.0308,0.0348,0.0398,0.0438,0.0401,0.0409,0.0238,0.0053,-0.0107,-0.0248,-0.0195,-0.0241,-0.0344,-0.0432,-0.0494,-0.0543,-0.0215,-0.0213,-0.0212,-0.0212,0,0.0279,0.0274,0.0283,0.0311,0.0336,0.0369,0.0413,0.0462,0.05,0.0566,0.0662,0.0679,0.0534,0.0394,0.0162,0.0034,-0.0279,-0.0178,-0.0314,-0.0403,-0.0451,-0.0512,-0.0197,-0.0203,-0.0203,-0.0204,-0.0205,-0.0205,0.0314,0.0328,0.0339,0.0368,0.04,0.0465,0.0513,0.0592,0.0697,0.0837,0.0853,0.0939,0.0704,0.04,0.0192,-0.0166,-0.0206,-0.0283,-0.0371,-0.0426,-0.0483,-0.0132,-0.0123,-0.0123,-0.0123,-0.0124,-0.0124,0,0.0359,0.0373,0.04,0.0434,0.0479,0.0489,0.0591,0.0665,0.0818,0.099,0.1109,0.11,0.0796,0.0449,-0.003,-0.0307,-0.0445,-0.0472,-0.058,-0.0627,-0.0334,-0.0326,-0.0324,-0.0324,-0.0324,-0.0324,-0.0324,-0.0324,0.0383,0.0418,0.0428,0.0501,0.0529,0.0609,0.0676,0.0813,0.0952,0.1186,0.1307,0.138,0.1147,0.0245,-0.0388,-0.0549,-0.0772,-0.0804,-0.0937,-0.0761,-0.0752,-0.0742,-0.0755,-0.0843,-0.0844,-0.1189,-0.1193,-0.1196]}],[{"header":{"parameterUnit":"m.s-1","parameterCategory":2,"la1":30.2991,"la2":30.254,"lo1":-89.0895,"lo2":-89.0444,"dy":0.0017,"dx":0.0017,"nx":28,"ny":28,"refTime":"2023-10-25T09:00:00:Z","depth":"2","parameterNumber":2,"parameterNumberName":"U-component_of_CURRENTS"},"data":[0,0,0,0,0,0,0,0,0,0,0,0,0,0,0,0,0,0,0,0,0,0,0,0,0,0,0,0,0,0,0,0,0,0,0,0,0,0,0,0,0,0,0,0,0,0,0,0,0,0,0,0,0,0,0,0,0,0,0.2026,0.2026,0,0.2045,0.2046,0.2046,0.2106,0.2107,0.2108,0.2109,0.2158,0.2159,0.2159,0,0,0,0,0,0,0,0,0,0,0,0,0,0.203,0.2031,0.2026,0.2026,0.2025,0.2045,0.2046,0.2046,0.2106,0.2107,0.2108,0.2109,0.2158,0.2159,0.2159,0,0,0,0,0,0,0,0,0,0,0,0,0,0.2043,0.2031,0.2026,0.2053,0.2055,0.2044,0.2046,0.2047,0.2106,0.2107,0.2108,0.2109,0.2158,0.2159,0.216,0.2143,0,0,0.2162,0.2163,0,0,0,0,0,0,0,0,0.2042,0.2044,0.2049,0.2051,0.2053,0.2069,0.2065,0.2078,0.2106,0.2094,0.2109,0.211,0.2126,0.213,0.214,0.2146,0.2148,0.2163,0.2163,0.2163,0.2164,0,0,0,0,0,0,0,0.2041,0.2043,0.204,0.2049,0.2051,0.2059,0.2063,0.2068,0.2109,0.2095,0.2098,0.2089,0.2128,0.2139,0.2141,0.2148,0.2162,0.2163,0.2164,0.2164,0.2214,0.2215,0,0,0,0,0,0,0.2025,0.2042,0.204,0.204,0.2043,0.2058,0.2062,0.2068,0.2108,0.2113,0.2088,0.2091,0.2136,0.214,0.2143,0.2189,0.2163,0.2164,0.2165,0.2213,0.2214,0.2215,0,0,0,0,0,0,0.2025,0.2025,0.2039,0.2036,0.2037,0.2056,0.2062,0.2068,0.2094,0.2101,0.2109,0.2109,0.2137,0.2142,0.2169,0.2188,0.2165,0.2166,0.2212,0.2213,0.2215,0.2239,0,0,0,0,0,0,0.2026,0.2026,0.203,0.2035,0.2036,0.2052,0.206,0.2067,0.2082,0.2088,0.2121,0.2127,0.2139,0.2167,0.217,0.2189,0.2166,0.2211,0.2213,0.2214,0.2237,0.2241,0.2244,0,0,0,0,0,0.2026,0.2022,0.2031,0.203,0.204,0.2052,0.2056,0.2076,0.2082,0.2103,0.2123,0.2127,0.2178,0.2169,0.2171,0.2192,0.2211,0.2212,0.2214,0.2236,0.224,0.2244,0,0,0,0,0,0,0.2025,0.2027,0.2037,0.2035,0.2052,0.2061,0.207,0.208,0.2111,0.2119,0.2132,0.2139,0.2175,0.2174,0.2163,0.221,0.2196,0.2198,0.2212,0.2216,0.2219,0.2224,0.2167,0,0,0,0,0,0.2023,0.2027,0.2035,0.2037,0.2045,0.2061,0.2067,0.2083,0.2101,0.2117,0.2134,0.2154,0.2179,0.2191,0.2212,0.2228,0.2239,0.2244,0.2247,0.225,0.2256,0.2285,0.2291,0.222,0.222,0.222,0,0,0.2022,0.2022,0.2025,0.2037,0.2052,0.2073,0.2071,0.2088,0.2111,0.2114,0.2153,0.2168,0.2187,0.2219,0.2234,0.2223,0.2278,0.2252,0.2254,0.2259,0.2287,0.2294,0.23,0.2222,0.2221,0.2221,0,0,0.2023,0.2027,0.2038,0.2054,0.207,0.2082,0.2089,0.2108,0.213,0.2155,0.2173,0.2198,0.2222,0.2248,0.2261,0.229,0.2298,0.2296,0.2313,0.234,0.2347,0.2352,0.2384,0.2392,0.2293,0.2293,0.2293,0,0.2024,0.2037,0.2044,0.2063,0.2074,0.2089,0.2113,0.2134,0.216,0.2177,0.2174,0.2226,0.2239,0.2285,0.2299,0.2299,0.2316,0.2296,0.2345,0.2351,0.2356,0.2387,0.2395,0.2294,0.2294,0.2294,0.2294,0,0.2039,0.2055,0.2062,0.2096,0.2114,0.2132,0.2157,0.2183,0.2196,0.2212,0.2256,0.2272,0.2303,0.2311,0.2314,0.2361,0.2362,0.235,0.2334,0.2365,0.2395,0.2404,0.2296,0.2296,0.2295,0.2295,0,0,0.2022,0.2067,0.207,0.2092,0.2132,0.2145,0.2189,0.2227,0.2254,0.2277,0.2311,0.2348,0.2351,0.2366,0.2374,0.2394,0.2444,0.2386,0.2387,0.2417,0.2513,0.2471,0.2476,0.244,0.2441,0.2442,0.2523,0,0.2035,0.2074,0.2094,0.2135,0.2158,0.2189,0.2226,0.2263,0.229,0.2326,0.2348,0.2381,0.2374,0.2388,0.2411,0.2441,0.2466,0.2424,0.248,0.2482,0.244,0.2484,0.2291,0.2343,0.2531,0.2533,0.2534,0,0.2038,0.2066,0.2108,0.2156,0.217,0.2194,0.2251,0.2287,0.2344,0.2365,0.2403,0.2419,0.2467,0.2442,0.2515,0.2489,0.2506,0.2519,0.2522,0.2479,0.2455,0.2342,0.2351,0.2548,0.2547,0.2546,0.2545,0,0.2012,0.2067,0.2099,0.2116,0.2178,0.2201,0.2235,0.2295,0.2325,0.239,0.2421,0.2471,0.2511,0.2534,0.2577,0.2546,0.2653,0.261,0.2592,0.2589,0.2434,0.2415,0.2657,0.2657,0.2657,0.2657,0.2656,0,0.2001,0.2022,0.2086,0.21,0.2135,0.2186,0.2226,0.227,0.2334,0.2379,0.2435,0.2486,0.2537,0.2601,0.2608,0.2644,0.2685,0.261,0.261,0.2438,0.2419,0.2598,0.259,0.266,0.2659,0.2658,0.2658,0,0.1956,0.2,0.2035,0.2103,0.2118,0.2142,0.2205,0.2237,0.2314,0.2379,0.2401,0.2515,0.2612,0.2667,0.2732,0.2696,0.272,0.2721,0.2524,0.2498,0.2624,0.2617,0.2687,0.2686,0.2685,0.2685,0.2684,0,0.1932,0.1947,0.2018,0.2036,0.2061,0.2104,0.213,0.2206,0.2249,0.2395,0.2426,0.2555,0.2628,0.2729,0.2711,0.2727,0.2766,0.2531,0.2423,0.2636,0.2629,0.2623,0.2616,0.2233,0.2229,0.2226,0.2223,0,0.1885,0.1915,0.1953,0.1992,0.2018,0.2047,0.2099,0.2125,0.2234,0.2304,0.2417,0.2486,0.2611,0.2551,0.2588,0.2558,0.2504,0.2462,0.2749,0.2255,0.2214,0.2206,0.2213,0.2193,0.2196,0.2198,0.22,0.2201,0.1846,0.1863,0.1915,0.1944,0.1971,0.1987,0.1984,0.2057,0.211,0.2182,0.2302,0.2333,0.2369,0.2326,0.2273,0.2236,0.2393,0.2251,0.2258,0.227,0.2202,0.2162,0.212,0.2122,0.2125,0.2126,0.2128,0,0.1785,0.1823,0.1859,0.1889,0.1888,0.1921,0.1955,0.1949,0.1984,0.2044,0.2093,0.1927,0.1911,0.1969,0.1874,0.1863,0.1814,0.1777,0.1692,0.1726,0.1755,0.1656,0.1431,0.1429,0.1426,0.1424,0,0,0.176,0.1774,0.1802,0.1795,0.1808,0.177,0.1768,0.1776,0.1799,0.1748,0.1714,0.1801,0.1904,0.1619,0.1599,0.1507,0.1593,0.1446,0.2015,0.1951,0.1976,0.2052,0.1943,0,0,0,0,0]},{"header":{"parameterUnit":"m.s-1","parameterCategory":2,"la1":30.2991,"la2":30.254,"lo1":-89.0895,"lo2":-89.0444,"dy":0.0017,"dx":0.0017,"nx":28,"ny":28,"refTime":"2023-10-25T09:00:00:Z","depth":"2","parameterNumber":3,"parameterNumberName":"V-component_of_CURRENTS"},"data":[0,0,0,0,0,0,0,0,0,0,0,0,0,0,0,0,0,0,0,0,0,0,0,0,0,0,0,0,0,0,0,0,0,0,0,0,0,0,0,0,0,0,0,0,0,0,0,0,0,0,0,0,0,0,0,0,0,0,-0.0061,-0.0061,0,-0.0128,-0.0129,-0.013,-0.0182,-0.0182,-0.0182,-0.0183,-0.0239,-0.024,-0.0241,0,0,0,0,0,0,0,0,0,0,0,0,0,-0.0016,-0.0016,-0.0061,-0.0061,-0.0062,-0.0128,-0.0129,-0.013,-0.0182,-0.0182,-0.0182,-0.0183,-0.0238,-0.024,-0.0241,0,0,0,0,0,0,0,0,0,0,0,0,0,-0.0056,-0.0016,-0.006,-0.0094,-0.0097,-0.0128,-0.0129,-0.013,-0.0182,-0.0182,-0.0182,-0.0183,-0.0238,-0.024,-0.0241,-0.0245,0,0,-0.0247,-0.0248,0,0,0,0,0,0,0,0,-0.0054,-0.0058,-0.0088,-0.0091,-0.0095,-0.0145,-0.0134,-0.0167,-0.0182,-0.0152,-0.0183,-0.0183,-0.0204,-0.0209,-0.0225,-0.0248,-0.025,-0.0247,-0.0248,-0.0249,-0.025,0,0,0,0,0,0,0,-0.0051,-0.0056,-0.009,-0.0089,-0.0093,-0.0118,-0.0124,-0.0141,-0.0177,-0.0155,-0.0158,-0.0161,-0.0206,-0.0223,-0.0226,-0.0251,-0.0247,-0.0249,-0.025,-0.0251,-0.0285,-0.0284,0,0,0,0,0,0,-0.0035,-0.0053,-0.0088,-0.0092,-0.0072,-0.0118,-0.0125,-0.013,-0.0177,-0.0184,-0.0161,-0.0164,-0.0219,-0.0224,-0.0228,-0.0242,-0.0249,-0.0251,-0.0252,-0.0285,-0.0285,-0.0284,0,0,0,0,0,0,-0.0034,-0.0038,-0.0085,-0.0072,-0.0079,-0.0118,-0.0124,-0.0132,-0.0148,-0.0182,-0.0189,-0.0169,-0.022,-0.0226,-0.0242,-0.0244,-0.0252,-0.0254,-0.0285,-0.0285,-0.0284,-0.0266,0,0,0,0,0,0,-0.0032,-0.0037,-0.0037,-0.0071,-0.0079,-0.01,-0.0123,-0.0132,-0.0148,-0.0152,-0.019,-0.0196,-0.022,-0.0239,-0.0244,-0.0247,-0.0255,-0.0285,-0.0285,-0.0285,-0.0266,-0.0265,-0.0263,0,0,0,0,0,-0.0031,-0.003,-0.0037,-0.0041,-0.0078,-0.01,-0.0107,-0.0138,-0.0148,-0.0154,-0.0179,-0.0195,-0.024,-0.024,-0.0246,-0.025,-0.0286,-0.0285,-0.0285,-0.0267,-0.0265,-0.0263,0,0,0,0,0,0,-0.0014,-0.0036,-0.0044,-0.0051,-0.0071,-0.0108,-0.0116,-0.0133,-0.0159,-0.0161,-0.0193,-0.0201,-0.0217,-0.0231,-0.0231,-0.0257,-0.0265,-0.0265,-0.025,-0.0248,-0.0246,-0.0248,-0.0257,0,0,0,0,0,-0.0007,-0.0012,-0.0036,-0.0041,-0.0048,-0.0079,-0.0092,-0.0111,-0.0136,-0.0148,-0.0174,-0.0198,-0.0219,-0.0231,-0.0251,-0.0264,-0.0278,-0.0269,-0.0267,-0.0265,-0.027,-0.0296,-0.0297,-0.0283,-0.0283,-0.0283,0,0,-0.0001,-0.0013,-0.0017,-0.0037,-0.0056,-0.0064,-0.0089,-0.0104,-0.0115,-0.0148,-0.0169,-0.0192,-0.022,-0.0239,-0.0247,-0.0252,-0.0273,-0.0265,-0.0263,-0.0269,-0.0295,-0.0297,-0.0298,-0.0282,-0.0282,-0.0282,0,0,0.0008,-0.0002,-0.0003,-0.0015,-0.0034,-0.0052,-0.0052,-0.0084,-0.0102,-0.012,-0.0149,-0.0173,-0.0201,-0.023,-0.0245,-0.0243,-0.0262,-0.0244,-0.0241,-0.0265,-0.0267,-0.0269,-0.0273,-0.0275,-0.0245,-0.0245,-0.0245,0,0.0017,0.0013,-0.0007,-0.0009,-0.0016,-0.0042,-0.0044,-0.0065,-0.0099,-0.0111,-0.0121,-0.0172,-0.0199,-0.0228,-0.0235,-0.0241,-0.025,-0.0247,-0.0264,-0.0266,-0.0268,-0.0272,-0.0275,-0.0244,-0.0244,-0.0244,-0.0244,0,0.0025,0.0023,0.0023,0.0013,0.0002,-0.0003,-0.0028,-0.0042,-0.0061,-0.0084,-0.0112,-0.0152,-0.0182,-0.0196,-0.022,-0.0247,-0.0246,-0.0258,-0.027,-0.0268,-0.0273,-0.0276,-0.0242,-0.0243,-0.0243,-0.0243,0,0,0.0047,0.0032,0.0034,0.0034,0.0015,0.0008,-0.0006,-0.0028,-0.0029,-0.007,-0.0079,-0.0136,-0.0156,-0.0176,-0.0206,-0.0239,-0.0264,-0.0257,-0.0258,-0.0262,-0.0304,-0.0267,-0.0267,-0.028,-0.0281,-0.0281,-0.0295,0,0.0062,0.0066,0.0051,0.0056,0.0057,0.0033,0.0026,0.0003,-0.0017,-0.0031,-0.0082,-0.0099,-0.0147,-0.0155,-0.0199,-0.0244,-0.0274,-0.0258,-0.0304,-0.0305,-0.0274,-0.027,-0.0253,-0.0261,-0.0299,-0.0299,-0.03,0,0.0079,0.008,0.0086,0.0083,0.0082,0.0081,0.0071,0.0064,0.0035,0.002,-0.0015,-0.0047,-0.0101,-0.0135,-0.0222,-0.0208,-0.0258,-0.0298,-0.0299,-0.0276,-0.0275,-0.0272,-0.0266,-0.0305,-0.0305,-0.0304,-0.0304,0,0.0111,0.0108,0.0116,0.0114,0.0104,0.0102,0.01,0.008,0.0091,0.0059,0.0072,-0.0006,-0.0016,-0.0108,-0.0188,-0.0209,-0.027,-0.0304,-0.0317,-0.0314,-0.0315,-0.031,-0.0368,-0.0368,-0.0368,-0.0368,-0.0368,0,0.0137,0.0146,0.0133,0.0139,0.0157,0.0138,0.0158,0.0147,0.0152,0.019,0.0109,0.0132,-0.0011,-0.0059,-0.0161,-0.0231,-0.0246,-0.0314,-0.0318,-0.0304,-0.0298,-0.0354,-0.0352,-0.0369,-0.0369,-0.0368,-0.0368,0,0.0172,0.0162,0.0174,0.0169,0.0174,0.0189,0.0213,0.0235,0.0232,0.0285,0.0284,0.0238,0.0183,0.0054,-0.0071,-0.0164,-0.0257,-0.0279,-0.0239,-0.0238,-0.0295,-0.0292,-0.031,-0.0308,-0.0307,-0.0307,-0.0306,0,0.0191,0.02,0.0206,0.0221,0.0221,0.0242,0.0268,0.0275,0.0317,0.0369,0.0411,0.0375,0.0382,0.0216,0.0026,-0.0134,-0.0182,-0.0223,-0.0271,-0.0289,-0.0291,-0.029,-0.0288,-0.0262,-0.0261,-0.026,-0.026,0,0.0231,0.023,0.0241,0.0272,0.0298,0.0333,0.0378,0.0429,0.047,0.0536,0.0631,0.0646,0.0498,0.034,0.0111,-0.0006,-0.0204,-0.021,-0.0243,-0.027,-0.0243,-0.0245,-0.0246,-0.0253,-0.0253,-0.0254,-0.0254,-0.0255,0.0265,0.0281,0.0296,0.0328,0.0362,0.0427,0.0476,0.0554,0.0659,0.0771,0.0788,0.0817,0.0617,0.0333,0.0126,-0.0115,-0.0114,-0.0216,-0.0219,-0.0223,-0.0206,-0.0178,-0.0171,-0.0171,-0.0171,-0.0171,-0.0172,0,0.0305,0.0325,0.0355,0.0393,0.0438,0.045,0.0554,0.0621,0.0769,0.087,0.0957,0.079,0.0631,0.0393,0.0048,-0.0144,-0.0191,-0.0208,-0.0237,-0.0241,-0.0245,-0.0231,-0.0202,-0.0203,-0.0204,-0.0205,0,0,0.0327,0.0365,0.0379,0.0455,0.0486,0.0563,0.063,0.0752,0.0841,0.094,0.0962,0.0972,0.0704,0.0445,0.0178,-0.0016,-0.0088,-0.0054,-0.0005,-0.001,-0.0012,-0.0219,-0.0197,0,0,0,0,0]}],[{"header":{"parameterUnit":"m.s-1","parameterCategory":2,"la1":30.2991,"la2":30.254,"lo1":-89.0895,"lo2":-89.0444,"dy":0.0017,"dx":0.0017,"nx":28,"ny":28,"refTime":"2023-10-25T09:00:00:Z","depth":"4","parameterNumber":2,"parameterNumberName":"U-component_of_CURRENTS"},"data":[0,0,0,0,0,0,0,0,0,0,0,0,0,0,0,0,0,0,0,0,0,0,0,0,0,0,0,0,0,0,0,0,0,0,0,0,0,0,0,0,0,0,0,0,0,0,0,0,0,0,0,0,0,0,0,0,0,0,0.1121,0.1122,0,0.1149,0.1149,0.1149,0.1181,0.1182,0.1183,0.1184,0.123,0.123,0.1231,0,0,0,0,0,0,0,0,0,0,0,0,0,0.1111,0.1111,0.1121,0.1122,0.1123,0.1149,0.1149,0.1149,0.1181,0.1182,0.1183,0.1184,0.123,0.123,0.1231,0,0,0,0,0,0,0,0,0,0,0,0,0,0.1122,0.1111,0.1121,0.1144,0.1146,0.1149,0.1149,0.115,0.1181,0.1182,0.1183,0.1184,0.1229,0.123,0.1231,0.1214,0,0,0.1233,0.1234,0,0,0,0,0,0,0,0,0.1121,0.1122,0.114,0.1142,0.1145,0.1166,0.1163,0.1173,0.1181,0.1165,0.1184,0.1185,0.1211,0.1213,0.1212,0.1216,0.1218,0.1233,0.1234,0.1234,0.1235,0,0,0,0,0,0,0,0.1121,0.1121,0.113,0.114,0.1144,0.1158,0.116,0.1165,0.118,0.1166,0.1169,0.1177,0.1212,0.1211,0.1213,0.1219,0.1233,0.1234,0.1235,0.1235,0.1318,0.132,0,0,0,0,0,0,0.1121,0.112,0.1129,0.1131,0.1139,0.1157,0.116,0.1155,0.1179,0.1185,0.1176,0.1178,0.1209,0.1212,0.1215,0.1267,0.1234,0.1235,0.1236,0.1317,0.1319,0.132,0,0,0,0,0,0,0.112,0.1121,0.1128,0.1129,0.1132,0.1157,0.1151,0.1156,0.1183,0.1187,0.1192,0.1202,0.121,0.1214,0.1246,0.1266,0.1235,0.1236,0.1314,0.1317,0.132,0.1325,0,0,0,0,0,0,0.1119,0.112,0.1129,0.1129,0.1132,0.1143,0.1151,0.1155,0.1185,0.1189,0.121,0.1214,0.1211,0.1245,0.1247,0.1267,0.1237,0.1312,0.1316,0.1319,0.1323,0.1327,0.1332,0,0,0,0,0,0.1119,0.1124,0.1129,0.1131,0.1139,0.1144,0.1147,0.1167,0.1186,0.1196,0.1219,0.1215,0.1268,0.1247,0.1249,0.1269,0.1311,0.1315,0.1318,0.1321,0.1327,0.1331,0,0,0,0,0,0,0.1127,0.1128,0.1133,0.114,0.1149,0.1151,0.1169,0.1181,0.1206,0.122,0.1226,0.1231,0.1271,0.1274,0.1251,0.1308,0.1293,0.1297,0.1294,0.13,0.1304,0.1298,0.1237,0,0,0,0,0,0.1131,0.1137,0.1138,0.1147,0.1153,0.1166,0.1178,0.1188,0.1205,0.1218,0.1236,0.1262,0.1283,0.1296,0.1313,0.1334,0.1345,0.1355,0.136,0.1363,0.1363,0.1415,0.1424,0.1333,0.1333,0.1333,0,0,0.1138,0.1141,0.1145,0.1151,0.1161,0.1163,0.1176,0.1197,0.1206,0.1218,0.1252,0.1278,0.1295,0.1323,0.1342,0.133,0.1392,0.1368,0.1371,0.1369,0.142,0.1429,0.1436,0.1336,0.1335,0.1335,0,0,0.1145,0.1156,0.1159,0.1163,0.1181,0.1184,0.1197,0.1213,0.1231,0.126,0.1279,0.1317,0.1348,0.1359,0.1368,0.141,0.1418,0.143,0.1439,0.149,0.1497,0.1504,0.151,0.1517,0.1428,0.1428,0.1428,0,0.116,0.1152,0.1164,0.1165,0.1172,0.1195,0.1198,0.1212,0.1242,0.1257,0.1278,0.1349,0.136,0.1392,0.1409,0.1417,0.1441,0.141,0.1494,0.1501,0.1507,0.1513,0.152,0.1429,0.1429,0.1429,0.1429,0,0.1151,0.1157,0.1162,0.1166,0.1178,0.1186,0.1201,0.1221,0.1255,0.1273,0.1333,0.1366,0.141,0.1424,0.1425,0.1481,0.148,0.1494,0.1472,0.1516,0.1519,0.1527,0.143,0.143,0.1429,0.1429,0,0,0.1155,0.1156,0.116,0.1161,0.1178,0.1184,0.12,0.1218,0.1241,0.1292,0.1344,0.138,0.1425,0.1441,0.1467,0.1503,0.1558,0.1522,0.1524,0.1514,0.1653,0.1572,0.1573,0.16,0.1602,0.1603,0.1628,0,0.1148,0.1143,0.1149,0.1155,0.1152,0.1172,0.1182,0.1207,0.125,0.1308,0.1362,0.1439,0.1426,0.1485,0.151,0.1558,0.1584,0.1548,0.1625,0.1626,0.1538,0.1581,0.1609,0.1634,0.1636,0.1637,0.1638,0,0.1135,0.1131,0.1131,0.1138,0.1142,0.1154,0.1184,0.1209,0.1276,0.1326,0.1403,0.1467,0.1535,0.1549,0.1611,0.1598,0.1626,0.1651,0.1653,0.1581,0.1561,0.1589,0.1653,0.1652,0.1651,0.165,0.1649,0,0.1117,0.1121,0.1123,0.1124,0.1135,0.1147,0.1172,0.1216,0.1257,0.1383,0.1446,0.1521,0.161,0.1647,0.1683,0.1673,0.1757,0.1746,0.1687,0.168,0.174,0.1733,0.1804,0.1804,0.1804,0.1804,0.1804,0,0.1094,0.1098,0.1118,0.1115,0.1117,0.1151,0.1191,0.1222,0.1319,0.1371,0.1482,0.1538,0.1652,0.1706,0.1712,0.1711,0.1777,0.169,0.1691,0.1739,0.1732,0.1744,0.1737,0.1805,0.1805,0.1805,0.1805,0,0.1068,0.1082,0.108,0.1098,0.1108,0.1123,0.1198,0.1233,0.1334,0.142,0.1483,0.1595,0.1661,0.1727,0.1804,0.1751,0.1764,0.1755,0.1785,0.1787,0.1638,0.1631,0.1673,0.1671,0.1669,0.1667,0.1666,0,0.1048,0.1047,0.1066,0.1059,0.1071,0.1111,0.1135,0.1237,0.1283,0.1411,0.1441,0.1574,0.1629,0.1644,0.1725,0.1749,0.1741,0.1728,0.1687,0.1632,0.163,0.1626,0.1622,0.1662,0.1662,0.1661,0.1661,0,0.1008,0.1029,0.1024,0.1016,0.1037,0.1035,0.1084,0.1117,0.1234,0.1354,0.1382,0.1439,0.1519,0.1575,0.164,0.164,0.1721,0.1706,0.171,0.1671,0.162,0.1618,0.1617,0.1654,0.1655,0.1655,0.1656,0,0.0983,0.0965,0.0973,0.0946,0.0954,0.0914,0.0965,0.1009,0.1074,0.123,0.1229,0.1352,0.1475,0.1519,0.1546,0.1581,0.1558,0.1502,0.1515,0.1524,0.1473,0.1385,0.1351,0,0,0,0,0,0.0952,0.0916,0.0895,0.0824,0.0821,0.0845,0.0894,0.0962,0.1097,0.1088,0.1157,0.1219,0.1298,0.1362,0.1373,0.1492,0.1564,0.1498,0.1504,0.1614,0.1622,0.158,0,0,0,0,0,0,0.0922,0.0915,0.0873,0.0728,0.0686,0.0675,0.0727,0.0819,0.0822,0.0971,0.1024,0.1148,0.1249,0.1283,0.1348,0.1375,0.1355,0.1595,0.1592,0.1609,0.1617,0.1624,0.1583,0,0,0,0,0]},{"header":{"parameterUnit":"m.s-1","parameterCategory":2,"la1":30.2991,"la2":30.254,"lo1":-89.0895,"lo2":-89.0444,"dy":0.0017,"dx":0.0017,"nx":28,"ny":28,"refTime":"2023-10-25T09:00:00:Z","depth":"4","parameterNumber":3,"parameterNumberName":"V-component_of_CURRENTS"},"data":[0,0,0,0,0,0,0,0,0,0,0,0,0,0,0,0,0,0,0,0,0,0,0,0,0,0,0,0,0,0,0,0,0,0,0,0,0,0,0,0,0,0,0,0,0,0,0,0,0,0,0,0,0,0,0,0,0,0,0.0032,0.0032,0,-0.0003,-0.0003,-0.0004,-0.0036,-0.0036,-0.0036,-0.0037,-0.009,-0.0091,-0.0092,0,0,0,0,0,0,0,0,0,0,0,0,0,0.0048,0.0048,0.0032,0.0032,0.0031,-0.0003,-0.0003,-0.0004,-0.0036,-0.0036,-0.0036,-0.0037,-0.009,-0.0091,-0.0092,0,0,0,0,0,0,0,0,0,0,0,0,0,0.0029,0.0048,0.0032,0.0012,0.001,-0.0003,-0.0003,-0.0004,-0.0035,-0.0036,-0.0036,-0.0037,-0.0089,-0.0091,-0.0093,-0.0093,0,0,-0.0098,-0.0098,0,0,0,0,0,0,0,0,0.003,0.0029,0.0015,0.0013,0.0011,-0.0015,-0.0017,-0.0034,-0.0035,-0.0019,-0.0037,-0.0037,-0.0066,-0.007,-0.0075,-0.0095,-0.0097,-0.0098,-0.0099,-0.01,-0.01,0,0,0,0,0,0,0,0.0032,0.003,0.0018,0.0015,0.0012,-0.0004,-0.0007,-0.0021,-0.004,-0.002,-0.0023,-0.0026,-0.0067,-0.0074,-0.0077,-0.0098,-0.0098,-0.0099,-0.01,-0.0101,-0.0117,-0.0116,0,0,0,0,0,0,0.0039,0.0031,0.0019,0.0017,0.002,-0.0003,-0.0007,-0.0007,-0.0039,-0.0045,-0.0025,-0.0027,-0.0071,-0.0075,-0.0079,-0.0059,-0.01,-0.0101,-0.0102,-0.0118,-0.0117,-0.0116,0,0,0,0,0,0,0.004,0.0038,0.002,0.0023,0.002,-0.0003,-0.0003,-0.0007,-0.0014,-0.0043,-0.0048,-0.0027,-0.0071,-0.0077,-0.0087,-0.0062,-0.0102,-0.0103,-0.0118,-0.0117,-0.0117,-0.0033,0,0,0,0,0,0,0.004,0.0039,0.0041,0.0024,0.002,0.0018,-0.0002,-0.0007,-0.0015,-0.0017,-0.0046,-0.0052,-0.0072,-0.0085,-0.0089,-0.0065,-0.0105,-0.0119,-0.0118,-0.0117,-0.0036,-0.0029,-0.0023,0,0,0,0,0,0.0041,0.0044,0.0041,0.004,0.0024,0.0019,0.0015,-0.0003,-0.0014,-0.0012,-0.0032,-0.0051,-0.0081,-0.0086,-0.0091,-0.0067,-0.0119,-0.0118,-0.0117,-0.0039,-0.003,-0.0023,0,0,0,0,0,0,0.005,0.0041,0.0037,0.0038,0.0032,0.0014,0.0011,0.0001,-0.0013,-0.0018,-0.0045,-0.0052,-0.0051,-0.0074,-0.0079,-0.007,-0.0103,-0.0102,-0.0042,-0.0034,-0.0028,-0.0001,-0.0106,0,0,0,0,0,0.0055,0.0057,0.0047,0.0049,0.0047,0.0031,0.0026,0.0016,0.0001,-0.0006,-0.0025,-0.0043,-0.0049,-0.0055,-0.0071,-0.0066,-0.0085,-0.0055,-0.0048,-0.0042,-0.0025,-0.0031,-0.0023,-0.0112,-0.0112,-0.0112,0,0,0.0058,0.0054,0.0055,0.0051,0.0044,0.0052,0.0027,0.0023,0.0035,-0.0009,-0.0003,-0.0023,-0.0045,-0.0038,-0.0039,-0.0053,-0.0031,-0.004,-0.0035,-0.0021,-0.0029,-0.002,-0.0012,-0.0111,-0.0111,-0.0111,0,0,0.0068,0.0065,0.0071,0.0072,0.0067,0.0063,0.0065,0.0052,0.0052,0.0053,0.0031,0.003,0.0006,0.001,0.0006,0.0039,0.0002,0.0026,0.0087,0.0081,0.0089,0.0096,0.0071,0.0075,0.0033,0.0033,0.0034,0,0.0073,0.0083,0.0072,0.0082,0.0092,0.0073,0.0091,0.0091,0.0077,0.0095,0.0062,0.0057,0.0036,0.0068,0.0081,0.0058,0.0037,0.0062,0.0092,0.0098,0.0104,0.0077,0.008,0.0038,0.0037,0.0037,0.0036,0,0.009,0.0101,0.0106,0.0119,0.0129,0.0138,0.0144,0.0156,0.015,0.0156,0.0175,0.0143,0.0143,0.0138,0.0122,0.0158,0.0124,0.01,0.0077,0.0118,0.0086,0.0088,0.0044,0.0042,0.0041,0.004,0,0,0.0098,0.0114,0.0119,0.0139,0.0152,0.0165,0.0199,0.0234,0.0268,0.0251,0.029,0.0283,0.0265,0.026,0.0234,0.0236,0.0252,0.0192,0.019,0.0178,0.0224,0.0161,0.0156,0.0231,0.0232,0.0233,0.0183,0,0.0118,0.0145,0.0155,0.0198,0.0217,0.0233,0.0277,0.0309,0.0319,0.0349,0.0339,0.0352,0.0311,0.0308,0.0307,0.0263,0.0262,0.0267,0.0178,0.0176,0.0123,0.0158,0.0236,0.0184,0.0185,0.0185,0.0185,0,0.0136,0.0155,0.0194,0.0255,0.0269,0.0299,0.0372,0.0406,0.0453,0.0462,0.0472,0.0447,0.0454,0.0401,0.0359,0.036,0.0308,0.0269,0.0265,0.0183,0.0117,0.0135,0.0188,0.0188,0.0187,0.0187,0.0187,0,0.0149,0.0192,0.0228,0.0242,0.0301,0.0342,0.0385,0.0445,0.0491,0.0527,0.0542,0.0538,0.0517,0.047,0.0371,0.0371,0.0305,0.0288,0.0185,0.0178,0.0213,0.0206,0.027,0.027,0.027,0.027,0.0271,0,0.0168,0.02,0.0237,0.0257,0.0329,0.0369,0.0452,0.0493,0.0555,0.0607,0.0594,0.0597,0.0533,0.0474,0.0399,0.0284,0.0318,0.0207,0.017,0.0245,0.0243,0.0213,0.0207,0.0269,0.0269,0.0269,0.027,0,0.0174,0.0192,0.0236,0.03,0.0331,0.0383,0.0487,0.0548,0.0595,0.065,0.066,0.0645,0.0565,0.0475,0.0381,0.0302,0.0211,0.016,0.0236,0.0201,0.0086,0.0085,0.0066,0.0063,0.0061,0.0059,0.0058,0,0.0179,0.0197,0.0259,0.0295,0.0325,0.0408,0.0479,0.056,0.0613,0.0665,0.0685,0.0632,0.0596,0.0417,0.0323,0.0173,0.0144,0.0095,0.0117,0.0104,0.0069,0.0071,0.0073,0.0055,0.0054,0.0053,0.0053,0,0.019,0.0203,0.0237,0.0305,0.0371,0.0466,0.0557,0.0581,0.0666,0.0702,0.0693,0.0616,0.0517,0.0395,0.0263,0.0158,0.0133,0.0073,0.0077,0.0098,0.009,0.0058,0.0062,0.0046,0.0047,0.0047,0.0048,0,0.0197,0.0214,0.0254,0.032,0.0403,0.0494,0.0543,0.0603,0.066,0.0694,0.0679,0.0596,0.056,0.0385,0.0268,0.0151,0.0133,0.0102,0.0105,0.0111,0.0132,0.0129,0.0079,0,0,0,0,0,0.0203,0.0222,0.0276,0.0346,0.0431,0.0496,0.0591,0.0633,0.0671,0.0663,0.0678,0.0587,0.0424,0.0364,0.0236,0.0222,0.0104,0.0067,0.0068,0.0006,0.0014,0.0025,0,0,0,0,0,0,0.0205,0.0242,0.0265,0.0363,0.0418,0.0534,0.0591,0.0628,0.0625,0.0635,0.055,0.0542,0.0383,0.0492,0.0229,0.0197,0.0176,0.0006,0.0003,0.0001,0.0009,0.0015,0.0029,0,0,0,0,0]}]]